Content
SEND FEEDBACK

Daily
Averages
Monthly
Summary
France

PORT-EN-BESSIN-HUPPAIN, FRANCE


Home > Europe > France
Elevation: 239 feet     Latitude: 49 21N     Longitude: 000 46W

WEATHER
 
SELECT A DAY
Number of Records: 216,049;   Date Range: 7/1/96 - 8/31/14
 
SHARE

PRINT THIS DATA

[ ← Previous Day ]
WEATHER ALMANAC - MARCH 20, 2013
[ Next Day → ]
[ °C ]   °F
Weather ElementAverageHighLow
Temperature41.2 °F46.4 °F (2:30 pm)35.6 °F (11:00 pm)
Dewpoint37.9 °F39.2 °F (12:30 am)35.6 °F (8:30 pm)
Humidity87.8 %100 % (1:00 am)71 % (2:30 pm)
Barometer29.70 in29.98 in (11:30 pm)29.44 in (12:30 am)
Wind Speed6 mph11.5 mph (5:30 am)
Weather ElementAverage
Visibility6.1 mi
Wind DirectionWSW (231.8 °)

Weather ElementTotal
Precipitation---
Heating Degree Days24 (Base 65)
Averaged from 50 records on March 20, 2013
WEATHER CONDITIONS BREAKOUT
WIND DIRECTION BREAKOUT
WEATHER BY HOUR - MARCH 20, 2013
[ °C ]   °F
Local TimeTemperatureDewpointHumidityBarometerVisibilityWind DirectionWind SpeedGust SpeedPrecipitationEventsConditions
12:30 AM41.0 °F39.2 °F93 %29.44 in6.2 miWSW (240°)5.8 mphOvercast
1:00 AM40.0 °F38.0 °F91 %29.47 in28.0 miWest (260°)4.6 mphClear
1:00 AM39.2 °F39.2 °F100 %29.44 in6.2 miWest (260°)4.6 mphOvercast
1:30 AM39.2 °F39.2 °F100 %29.47 in6.2 miWSW (250°)4.6 mphOvercast
2:00 AM39.2 °F37.4 °F93 %29.47 in6.2 miWSW (250°)5.8 mphMostly Cloudy
2:30 AM39.2 °F37.4 °F93 %29.47 in6.2 miSW (230°)8.1 mphMostly Cloudy
3:00 AM39.2 °F37.4 °F93 %29.47 in6.2 miWSW (240°)5.8 mphOvercast
3:30 AM39.2 °F37.4 °F93 %29.47 in6.2 miWSW (250°)5.8 mphOvercast
4:00 AM39.2 °F37.4 °F93 %29.47 in6.2 miWest (260°)6.9 mphOvercast
4:30 AM39.2 °F37.4 °F93 %29.47 in5.6 miWSW (250°)8.1 mphOvercast
5:00 AM39.2 °F37.4 °F93 %29.50 in6.2 miWSW (250°)9.2 mphMostly Cloudy
5:30 AM39.2 °F37.4 °F93 %29.50 in6.2 miWSW (240°)11.5 mphMostly Cloudy
6:00 AM39.2 °F37.4 °F93 %29.50 in6.2 miWSW (250°)11.5 mph
6:30 AM39.2 °F37.4 °F93 %29.53 in6.2 miWSW (250°)9.2 mphOvercast
7:00 AM39.2 °F37.4 °F93 %29.53 in6.2 miWest (270°)6.9 mphOvercast
7:30 AM39.2 °F37.4 °F93 %29.56 in6.2 miWest (280°)5.8 mphOvercast
8:00 AM39.2 °F37.4 °F93 %29.56 in6.2 miWNW (290°)4.6 mphOvercast
8:30 AM41.0 °F39.2 °F93 %29.59 in4.3 miWest (280°)3.5 mphRainLight Rain
9:00 AM41.0 °F39.2 °F93 %29.59 in6.2 miWSW (250°)6.9 mphOvercast
9:30 AM41.0 °F39.2 °F93 %29.62 in6.2 miWest (270°)5.8 mphOvercast
10:00 AM42.8 °F39.2 °F87 %29.62 in6.2 miWest (280°)5.8 mphOvercast
10:30 AM42.8 °F39.2 °F87 %29.65 in6.2 miWNW (290°)5.8 mphOvercast
11:00 AM44.6 °F39.2 °F81 %29.65 in6.2 miWest (270°)5.8 mphMostly Cloudy
11:30 AM42.8 °F39.2 °F87 %29.68 in1.7 miNNW (340°)9.2 mphRainRain
12:00 PM42.8 °F39.2 °F87 %29.71 in6.2 miWSW (250°)5.8 mphOvercast
12:30 PM44.6 °F39.2 °F81 %29.71 in6.2 miNNW (340°)8.1 mphOvercast
1:00 PM44.0 °F39.0 °F76 %29.75 in25.0 miNorth (10°)9.2 mphPartly Cloudy
1:00 PM44.6 °F39.2 °F81 %29.74 in6.2 miNorth (10°)8.1 mphMostly Cloudy
1:30 PM44.6 °F39.2 °F81 %29.74 in6.2 miNorth (360°)8.1 mphMostly Cloudy
2:00 PM44.6 °F39.2 °F81 %29.77 in6.2 miNorth (350°)6.9 mphOvercast
2:30 PM46.4 °F37.4 °F71 %29.77 in6.2 miNorth (10°)6.9 mphMostly Cloudy
3:00 PM44.6 °F37.4 °F76 %29.80 in6.2 miNNW (330°)8.1 mphOvercast
3:30 PM44.6 °F39.2 °F81 %29.80 in6.2 miNNW (340°)8.1 mphOvercast
4:00 PM44.6 °F37.4 °F76 %29.80 in6.2 miNW (320°)8.1 mphMostly Cloudy
4:30 PM44.6 °F37.4 °F76 %29.83 in6.2 miNW (310°)5.8 mphMostly Cloudy
5:00 PM44.6 °F37.4 °F76 %29.83 in6.2 miNorth (350°)5.8 mphMostly Cloudy
5:30 PM44.6 °F37.4 °F76 %29.83 in6.2 miVariable2.3 mphMostly Cloudy
6:00 PM44.6 °F37.4 °F76 %29.86 in6.2 miNNW (330°)3.5 mphOvercast
6:30 PM42.8 °F37.4 °F81 %29.89 in6.2 miVariable3.5 mphOvercast
7:00 PM42.0 °F38.0 °F82 %29.92 in2.0 miNorth (350°)5.8 mphRainRain
7:00 PM42.8 °F39.2 °F87 %29.89 in1.6 miNorth (350°)5.8 mphRainLight Rain
7:30 PM41.0 °F37.4 °F87 %29.92 in4.3 miNNW (340°)3.5 mphMostly Cloudy
8:00 PM41.0 °F37.4 °F87 %29.92 in5.6 miNNW (330°)2.3 mphOvercast
8:30 PM39.2 °F35.6 °F87 %29.92 in3.7 miCalmPartly Cloudy
9:00 PM39.2 °F37.4 °F93 %29.95 in3.7 miCalm
9:30 PM37.4 °F35.6 °F93 %29.95 in2.8 miCalmMist
10:00 PM37.4 °F35.6 °F93 %29.95 in1.6 miSSE (150°)4.6 mphMist
10:30 PM37.4 °F35.6 °F93 %29.95 in1.6 miSE (140°)4.6 mphMist
11:00 PM35.6 °F35.6 °F100 %29.95 in1.2 miSSE (160°)5.8 mphMist
11:30 PM35.6 °F35.6 °F100 %29.98 in1.1 miSSE (160°)5.8 mphMist
Hourly data recorded from LFRK, located miles away from Port-en-Bessin-Huppain, France







STORIES FROM OUR PARTNERS